STARLINK-34430, 64456

Orbit data source: Space-Track

STARLINK-34430, 64456 is a payload satellite owned by SpaceX/Seattle (US) in LEO that was launched on Wed, 18 Jun 2025 UTC via an FALCON 9 launch vehicle from the Air Force Eastern Test Range (AFETR). Payload-class satellites include a variety of spacecraft equipped with specific instruments for various scientific and technological missions. These include communications satellites like Starlink; space stations such as the ISS; scientific satellites like the Hubble; Earth observation satellites from companies like Planet Labs, Umbra, and HawkEye 360; GPS; miniature CubeSats for education and research; and military/defense satellites.

Loading next visibility...
Identifier
64456, 2025-130U
Orbit
LEO
Country
Flag of USUS
Related business
Manufacturer
SpaceX/Seattle
Mission
Operational Commercial Communications
Bus & Motor
STARLINK V2MO, Unknown motor
Mass
575 kg wet, ~530 kg dry
Launch date (UTC)
2025-06-18 (1 year ago)
Launch vehicle
FALCON 9
Launch site
Air Force Eastern Test Range (AFETR)
Object type
Payload
Rocket body
Debris
Shape & HBR
Box + 2 Pan, 17.7 m
Radar Cross Section
36.964 m², Large (>1 m²)

Expand to show TLE details & history
Last TLE update: 9 hours ago

TLE from 9 hours ago
0 STARLINK-34430
1 64456U 25130U   26171.47459385  .00023706  00000-0  80926-3 0  9994
2 64456  53.1613 330.8439 0001570  99.8781 260.2397 15.30227424 56449
Epoch: 2026-06-20T11:23Z
TLE epoch observation values (Epoch: 2026-06-20T11:23:24.908Z)
Latitude
-0.00004°
Longitude
-108.6986°
Altitude
476.216 km
Speed
7.629 km/s
True Right ascension
22h 03m 22s
True Declination
0° 00' 00"
Sunlit
Object was in full shadow at epoch
Visualization orbit readout
Latitude
Unknown
Longitude
Unknown
Altitude
Unknown
Speed
Unknown
Apparent Right ascension
Unknown
Apparent Declination
Unknown
Sunlit
N/A
Visualization observer readout
Local Sidereal Time
07:14:23
Azimuth
Unknown
Elevation
Unknown
Doppler factor
Unknown
Orbital elements
Apogee altitude
476.465 km
Perigee altitude
474.313 km
Semi-major axis
6,853.526 km
Eccentricity
0.00016
Inclination
53.1613°
RAAN
330.8439°
Arg. of periapsis
99.8781°
True anomaly
260.22197°
Mean anomaly
260.2397°
Eccentric anomaly
260.23084°
Mean motion
3.82536 °/min
Orbital period
94.11 mins
BSTAR
0.00080926
Loading maneuver chart data...
Computing Atmospheric mass density...
Loading historical data...
Loading historical data...
Loading historical data...
Loading historical data...
Loading historical data...
Loading historical data...
Loading historical data...

Documentation

Showing up to 5 results
|